Location: Newark
(13.8117°N, 3.6025°W)
Time: 12:51:01
(UTC+00:00)

Vanguard 2 - Pass Details

Date: 29 August 2019
Orbit: 554 x 2937 km, 32.9° (Epoch: 17 September)

Event Time Altitude Azimuth Distance (km) Brightness Sun altitude
Rises 13:33:25 0° 317° (NW) 3,310 10.9 70.4°
Reaches altitude 10° 13:36:25 10° 337° (NNW) 2,662 10.5 69.7°
Maximum altitude 13:40:49 18° 20° (NNE) 2,535 10.3 68.6°
Drops below altitude 10° 13:46:42 10° 61° (ENE) 3,728 10.9 67.2°
Sets 13:52:05 0° 77° (ENE) 5,251 11.5 65.9°
